[[{"header":{"parameterUnit":"m.s-1","parameterCategory":1,"la1":30.2991,"la2":30.254,"lo1":-89.0895,"lo2":-89.0444,"dy":0.0017,"dx":0.0017,"nx":28,"ny":28,"refTime":"2025-08-15T09:00:00:Z","depth":0,"parameterNumber":2,"parameterNumberName":"U-component_of_WINDS"},"data":[0,0,0,0,0,0,0,0,0,0,0,0,0,0,0,0,0,0,0,0,0,0,0,0,0,0,0,0,0,0,0,0,0,0,0,0,0,0,0,0,0,0,0,0,0,0,0,0,0,0,0,0,0,0,0,0,0,0,1.7089,1.7089,0,1.7109,1.7109,1.711,1.7114,1.7114,1.7113,1.7113,1.7133,1.7134,1.7135,0,0,0,0,0,0,0,0,0,0,0,0,0,1.7055,1.7056,1.7089,1.7089,1.709,1.7109,1.7109,1.711,1.7114,1.7114,1.7113,1.7113,1.7133,1.7134,1.7135,0,0,0,0,0,0,0,0,0,0,0,0,0,1.7072,1.7056,1.7089,1.7094,1.7095,1.7109,1.7109,1.711,1.7114,1.7114,1.7113,1.7113,1.7133,1.7134,1.7135,1.7145,0,0,1.7138,1.7138,0,0,0,0,0,0,0,0,1.7071,1.7073,1.7093,1.7094,1.7094,1.7109,1.7105,1.7122,1.7114,1.7107,1.7113,1.7113,1.7125,1.7127,1.7131,1.7146,1.7147,1.7138,1.7138,1.7139,1.7139,0,0,0,0,0,0,0,1.707,1.7072,1.7097,1.7093,1.7094,1.7095,1.7098,1.7108,1.7117,1.7107,1.7108,1.711,1.7126,1.713,1.7132,1.7147,1.7138,1.7139,1.7139,1.714,1.7174,1.7174,0,0,0,0,0,0,1.7068,1.7071,1.7096,1.7098,1.7082,1.7096,1.7099,1.7104,1.7117,1.7118,1.711,1.711,1.7128,1.713,1.7132,1.7146,1.7139,1.714,1.714,1.7174,1.7174,1.7174,0,0,0,0,0,0,1.7067,1.707,1.7096,1.7085,1.7088,1.7097,1.7103,1.7105,1.7109,1.7119,1.7121,1.7113,1.7128,1.7131,1.7142,1.7147,1.714,1.7141,1.7173,1.7174,1.7174,1.7174,0,0,0,0,0,0,1.7066,1.707,1.7073,1.7085,1.7088,1.7105,1.7104,1.7105,1.7111,1.7111,1.7122,1.7124,1.7128,1.7141,1.7143,1.7148,1.7142,1.7173,1.7174,1.7174,1.7174,1.7175,1.7175,0,0,0,0,0,1.7065,1.7072,1.7073,1.7076,1.7093,1.7105,1.7108,1.7113,1.7111,1.7116,1.7122,1.7123,1.7146,1.7142,1.7145,1.715,1.7173,1.7173,1.7174,1.7173,1.7174,1.7175,0,0,0,0,0,0,1.706,1.7073,1.7075,1.7086,1.7095,1.7106,1.7111,1.7114,1.7122,1.7122,1.7128,1.7131,1.7142,1.7147,1.7142,1.7162,1.716,1.7161,1.7158,1.7159,1.716,1.7158,1.7143,0,0,0,0,0,1.7061,1.7069,1.708,1.7089,1.7093,1.7102,1.7107,1.7111,1.712,1.7123,1.713,1.7139,1.7148,1.7154,1.7163,1.7175,1.7178,1.718,1.7181,1.7181,1.7182,1.719,1.7192,1.7177,1.7177,1.7177,0,0,1.7061,1.707,1.7074,1.7089,1.7095,1.7105,1.7105,1.7114,1.7121,1.7124,1.7136,1.7142,1.7152,1.7164,1.717,1.7169,1.7187,1.7182,1.7183,1.7183,1.7191,1.7193,1.7194,1.7177,1.7177,1.7177,0,0,1.7067,1.7074,1.7083,1.709,1.7101,1.7107,1.7109,1.7121,1.7125,1.7137,1.714,1.7149,1.7164,1.7172,1.7177,1.7189,1.719,1.7191,1.7195,1.7203,1.7204,1.7205,1.721,1.7211,1.7192,1.7192,1.7192,0,1.7067,1.708,1.7087,1.7097,1.7103,1.7108,1.7117,1.7124,1.7137,1.7142,1.7141,1.7161,1.7168,1.7183,1.7186,1.719,1.7193,1.719,1.7203,1.7204,1.7206,1.721,1.7212,1.7193,1.7193,1.7193,1.7193,0,1.708,1.7089,1.7095,1.7109,1.7116,1.7125,1.7134,1.714,1.7144,1.715,1.7163,1.7172,1.7183,1.7187,1.719,1.7203,1.7202,1.7202,1.72,1.7207,1.7211,1.7213,1.7193,1.7193,1.7193,1.7193,0,0,1.7082,1.71,1.7102,1.7109,1.7122,1.713,1.714,1.7152,1.7158,1.7168,1.7177,1.7191,1.7191,1.7198,1.7202,1.7209,1.7219,1.7209,1.7209,1.7211,1.7234,1.7234,1.7235,1.722,1.7221,1.7221,1.7233,0,1.7089,1.7108,1.7115,1.713,1.714,1.7146,1.7155,1.7164,1.7171,1.718,1.7187,1.7197,1.7197,1.7201,1.7208,1.7216,1.7223,1.7215,1.7229,1.7229,1.7226,1.7238,1.7237,1.7248,1.7235,1.7235,1.7235,0,1.71,1.7111,1.7127,1.7141,1.7145,1.7153,1.7166,1.7174,1.7186,1.719,1.7199,1.7203,1.7215,1.7212,1.7229,1.7223,1.7229,1.7234,1.7235,1.7236,1.7232,1.7239,1.7252,1.7253,1.7238,1.7238,1.7238,0,1.7101,1.7119,1.7132,1.7137,1.7154,1.7159,1.7166,1.7178,1.7185,1.7196,1.7201,1.7213,1.7219,1.7229,1.7236,1.7234,1.7252,1.725,1.7257,1.7256,1.726,1.7259,1.7273,1.7264,1.7264,1.7264,1.7264,0,1.7109,1.7119,1.7133,1.714,1.7152,1.7161,1.7172,1.7179,1.719,1.7199,1.7205,1.7214,1.7224,1.7234,1.724,1.7253,1.7256,1.726,1.7262,1.726,1.7259,1.7263,1.7263,1.7264,1.7264,1.7264,1.7264,0,1.7111,1.7121,1.7135,1.715,1.7154,1.7162,1.7174,1.7182,1.719,1.7202,1.7205,1.7217,1.723,1.7239,1.7255,1.7259,1.7273,1.7275,1.727,1.727,1.7276,1.7276,1.7294,1.7297,1.7285,1.7285,1.7285,0,1.7115,1.7123,1.7139,1.7146,1.7154,1.7165,1.7173,1.7182,1.719,1.7205,1.7211,1.7225,1.7235,1.7256,1.7266,1.7278,1.728,1.7286,1.7282,1.728,1.7281,1.728,1.7281,1.7286,1.7286,1.7286,1.7286,0,1.7122,1.7127,1.7138,1.7151,1.7161,1.7172,1.7182,1.7188,1.72,1.7208,1.7222,1.7231,1.7248,1.7261,1.7275,1.7283,1.7287,1.7287,1.729,1.7287,1.7284,1.7286,1.7271,1.7287,1.7287,1.7287,1.7287,1.7287,1.7125,1.7133,1.7146,1.7159,1.7169,1.7179,1.7188,1.7197,1.7208,1.7223,1.7229,1.7243,1.7255,1.7275,1.7283,1.7294,1.7294,1.7297,1.7298,1.7298,1.7299,1.7283,1.7297,1.7297,1.7297,1.7297,1.7297,0,1.7132,1.7142,1.7153,1.7169,1.718,1.7183,1.7196,1.7204,1.7217,1.7229,1.724,1.7256,1.7269,1.7281,1.7295,1.7302,1.7305,1.7306,1.7305,1.7307,1.7298,1.7295,1.7304,1.7304,1.7304,1.7304,1.7304,1.7304,1.7137,1.7151,1.7158,1.7177,1.7186,1.72,1.7208,1.7218,1.7227,1.7245,1.7257,1.7265,1.7277,1.7292,1.7305,1.7308,1.7313,1.7314,1.7317,1.7308,1.7308,1.7307,1.7304,1.7315,1.7315,1.7326,1.7326,1.7326]},{"header":{"parameterUnit":"m.s-1","parameterCategory":1,"la1":30.2991,"la2":30.254,"lo1":-89.0895,"lo2":-89.0444,"dy":0.0017,"dx":0.0017,"nx":28,"ny":28,"refTime":"2025-08-15T09:00:00:Z","depth":0,"parameterNumber":3,"parameterNumberName":"V-component_of_WINDS"},"data":[0,0,0,0,0,0,0,0,0,0,0,0,0,0,0,0,0,0,0,0,0,0,0,0,0,0,0,0,0,0,0,0,0,0,0,0,0,0,0,0,0,0,0,0,0,0,0,0,0,0,0,0,0,0,0,0,0,0,-0.8147,-0.8147,0,-0.812,-0.8119,-0.8119,-0.811,-0.811,-0.811,-0.811,-0.808,-0.8079,-0.8078,0,0,0,0,0,0,0,0,0,0,0,0,0,-0.8193,-0.8192,-0.8147,-0.8147,-0.8147,-0.812,-0.8119,-0.8119,-0.811,-0.811,-0.811,-0.811,-0.808,-0.8079,-0.8078,0,0,0,0,0,0,0,0,0,0,0,0,0,-0.817,-0.8192,-0.8147,-0.8139,-0.8138,-0.812,-0.8119,-0.8119,-0.811,-0.811,-0.811,-0.811,-0.8081,-0.8079,-0.8078,-0.8066,0,0,-0.8074,-0.8073,0,0,0,0,0,0,0,0,-0.8171,-0.8168,-0.814,-0.8139,-0.8138,-0.8118,-0.8124,-0.8101,-0.811,-0.812,-0.811,-0.811,-0.8093,-0.809,-0.8085,-0.8065,-0.8063,-0.8074,-0.8073,-0.8072,-0.8072,0,0,0,0,0,0,0,-0.8173,-0.8169,-0.8136,-0.814,-0.8139,-0.8137,-0.8134,-0.812,-0.8106,-0.8119,-0.8119,-0.8116,-0.8092,-0.8086,-0.8084,-0.8063,-0.8074,-0.8073,-0.8072,-0.8071,-0.8034,-0.8034,0,0,0,0,0,0,-0.8176,-0.8171,-0.8137,-0.8136,-0.8156,-0.8136,-0.8132,-0.8125,-0.8106,-0.8103,-0.8115,-0.8115,-0.8088,-0.8085,-0.8083,-0.8069,-0.8072,-0.8071,-0.807,-0.8035,-0.8034,-0.8034,0,0,0,0,0,0,-0.8177,-0.8173,-0.8138,-0.8153,-0.8148,-0.8135,-0.8126,-0.8124,-0.8118,-0.8103,-0.81,-0.8112,-0.8088,-0.8085,-0.8071,-0.8068,-0.8071,-0.8069,-0.8035,-0.8035,-0.8034,-0.804,0,0,0,0,0,0,-0.8178,-0.8173,-0.8168,-0.8153,-0.8148,-0.8127,-0.8126,-0.8123,-0.8116,-0.8115,-0.8099,-0.8096,-0.8088,-0.8073,-0.807,-0.8066,-0.8068,-0.8035,-0.8035,-0.8034,-0.804,-0.804,-0.804,0,0,0,0,0,-0.818,-0.817,-0.8168,-0.8164,-0.8141,-0.8127,-0.8124,-0.8115,-0.8115,-0.8111,-0.8102,-0.8097,-0.8069,-0.8072,-0.8068,-0.8064,-0.8035,-0.8035,-0.8034,-0.804,-0.804,-0.804,0,0,0,0,0,0,-0.8184,-0.8168,-0.8165,-0.815,-0.814,-0.8125,-0.8118,-0.8115,-0.8103,-0.8103,-0.8093,-0.8089,-0.8077,-0.8069,-0.8072,-0.8052,-0.8052,-0.8051,-0.8058,-0.8058,-0.8058,-0.806,-0.8067,0,0,0,0,0,-0.8184,-0.8174,-0.816,-0.8148,-0.8143,-0.8132,-0.8125,-0.812,-0.8108,-0.8104,-0.8093,-0.8082,-0.8071,-0.8064,-0.8053,-0.804,-0.8037,-0.8035,-0.8035,-0.8035,-0.8034,-0.8028,-0.8028,-0.8033,-0.8033,-0.8033,0,0,-0.8182,-0.8172,-0.8166,-0.8149,-0.814,-0.813,-0.8128,-0.8117,-0.811,-0.8102,-0.8089,-0.8081,-0.8068,-0.8055,-0.8049,-0.8048,-0.8032,-0.8035,-0.8035,-0.8034,-0.8028,-0.8028,-0.8027,-0.8033,-0.8033,-0.8033,0,0,-0.8174,-0.8165,-0.8155,-0.8147,-0.8135,-0.8128,-0.8126,-0.8112,-0.8107,-0.8094,-0.8088,-0.808,-0.806,-0.8052,-0.8045,-0.8038,-0.8033,-0.8034,-0.8034,-0.8029,-0.8028,-0.8028,-0.8026,-0.8025,-0.8033,-0.8033,-0.8033,0,-0.8173,-0.8158,-0.815,-0.8141,-0.8134,-0.8128,-0.8118,-0.8111,-0.8095,-0.8091,-0.8091,-0.8068,-0.8059,-0.8045,-0.8043,-0.8038,-0.8035,-0.8036,-0.8029,-0.8028,-0.8028,-0.8026,-0.8026,-0.8034,-0.8034,-0.8034,-0.8034,0,-0.8159,-0.8149,-0.8142,-0.8129,-0.8121,-0.8112,-0.8103,-0.8097,-0.8092,-0.8086,-0.8074,-0.8063,-0.8051,-0.8047,-0.8042,-0.8033,-0.8033,-0.8031,-0.803,-0.8028,-0.8026,-0.8025,-0.8034,-0.8034,-0.8034,-0.8034,0,0,-0.815,-0.8135,-0.8133,-0.8128,-0.8115,-0.8107,-0.8098,-0.8087,-0.8082,-0.8072,-0.8065,-0.805,-0.8049,-0.8042,-0.8036,-0.8031,-0.8028,-0.803,-0.803,-0.8031,-0.8019,-0.8021,-0.802,-0.8025,-0.8025,-0.8025,-0.802,0,-0.8141,-0.8125,-0.8119,-0.8106,-0.8097,-0.8093,-0.8085,-0.8077,-0.8071,-0.8063,-0.8057,-0.8047,-0.8046,-0.8041,-0.8037,-0.8029,-0.8025,-0.8029,-0.8019,-0.8018,-0.8022,-0.8019,-0.802,-0.8016,-0.8019,-0.8019,-0.8019,0,-0.8128,-0.812,-0.8106,-0.8097,-0.8093,-0.8086,-0.8077,-0.8069,-0.806,-0.8056,-0.805,-0.8045,-0.8036,-0.8037,-0.8025,-0.8028,-0.8024,-0.802,-0.8019,-0.8018,-0.8018,-0.8018,-0.8014,-0.8014,-0.8018,-0.8018,-0.8018,0,-0.8125,-0.811,-0.81,-0.8096,-0.8085,-0.808,-0.8075,-0.8067,-0.8061,-0.8053,-0.805,-0.804,-0.8035,-0.8028,-0.8022,-0.8023,-0.8011,-0.8011,-0.8009,-0.8009,-0.8006,-0.8006,-0.8002,-0.8003,-0.8003,-0.8003,-0.8003,0,-0.8115,-0.8107,-0.8099,-0.8093,-0.8085,-0.8079,-0.8071,-0.8065,-0.8058,-0.8052,-0.8047,-0.8041,-0.8033,-0.8026,-0.8021,-0.8013,-0.801,-0.8008,-0.8006,-0.8008,-0.8009,-0.8005,-0.8005,-0.8002,-0.8002,-0.8003,-0.8003,0,-0.8109,-0.8104,-0.8093,-0.8084,-0.8082,-0.8076,-0.8069,-0.8063,-0.8058,-0.805,-0.8048,-0.804,-0.8032,-0.8026,-0.8014,-0.8011,-0.8003,-0.8001,-0.8006,-0.8006,-0.8004,-0.8004,-0.7997,-0.7996,-0.7998,-0.7998,-0.7998,0,-0.8103,-0.8098,-0.8089,-0.8085,-0.808,-0.8073,-0.8068,-0.8063,-0.8058,-0.8049,-0.8045,-0.8037,-0.803,-0.8018,-0.8011,-0.8004,-0.8002,-0.8,-0.8,-0.8003,-0.8003,-0.8003,-0.8003,-0.8,-0.8,-0.8,-0.8,0,-0.8094,-0.8093,-0.8086,-0.8079,-0.8074,-0.8068,-0.8062,-0.8058,-0.8052,-0.8047,-0.8039,-0.8034,-0.8025,-0.8017,-0.8009,-0.8004,-0.8001,-0.8,-0.7999,-0.8001,-0.8004,-0.8003,-0.8007,-0.8,-0.8,-0.8,-0.8,-0.8,-0.8089,-0.8084,-0.8078,-0.8071,-0.8067,-0.8062,-0.8057,-0.8053,-0.8046,-0.8039,-0.8036,-0.8029,-0.8022,-0.8011,-0.8007,-0.8001,-0.8001,-0.7999,-0.7999,-0.7999,-0.7999,-0.8006,-0.8,-0.8,-0.8,-0.8,-0.8,0,-0.808,-0.8076,-0.8071,-0.8063,-0.8059,-0.8058,-0.8052,-0.8048,-0.8041,-0.8036,-0.803,-0.8023,-0.8016,-0.801,-0.8003,-0.8,-0.7999,-0.7999,-0.7999,-0.7998,-0.8,-0.8001,-0.8,-0.8,-0.8,-0.8,-0.8,-0.8,-0.8075,-0.8068,-0.8066,-0.8057,-0.8053,-0.8047,-0.8044,-0.8039,-0.8035,-0.8027,-0.8022,-0.8019,-0.8014,-0.8007,-0.8001,-0.8,-0.7998,-0.7998,-0.7996,-0.7998,-0.7998,-0.7998,-0.7999,-0.7998,-0.7998,-0.7995,-0.7995,-0.7995]}]]